Time,TemperatureF,DewpointF,PressureIn,WindDirection,WindDirectionDegrees,WindSpeedMPH,WindSpeedGustMPH,Humidity,HourlyPrecipIn,Conditions,Clouds,dailyrainin,SoftwareType,DateUTC
2013-03-12 00:02:00,37.0,35.0,-100.00,SSW,210,11.0,14.0,92,0.00,,,-99.99,,2013-03-12 04:02:00,
2013-03-12 00:13:00,37.0,35.0,-100.00,SW,225,12.0,19.0,92,0.00,,,-99.99,,2013-03-12 04:13:00,
2013-03-12 00:22:00,37.0,35.0,-100.00,SSW,210,11.0,17.0,92,0.00,,,-99.99,,2013-03-12 04:22:00,
2013-03-12 00:32:00,37.0,35.0,-100.00,SW,215,16.0,21.0,93,0.00,,,-99.99,,2013-03-12 04:32:00,
2013-03-12 00:43:00,37.0,35.0,-100.00,SW,220,11.0,18.0,93,0.00,,,-99.99,,2013-03-12 04:43:00,
2013-03-12 00:52:00,37.0,35.0,-100.00,SW,230,11.0,19.0,95,0.00,,,-99.99,,2013-03-12 04:52:00,
2013-03-12 01:02:00,37.0,35.0,-100.00,SW,230,11.0,19.0,95,0.00,,,-99.99,,2013-03-12 05:02:00,
2013-03-12 01:12:00,36.0,34.0,-100.00,WSW,245,14.0,22.0,93,0.00,,,-99.99,,2013-03-12 05:12:00,
2013-03-12 01:22:00,36.0,34.0,-100.00,WSW,245,12.0,19.0,93,0.00,,,-99.99,,2013-03-12 05:22:00,
2013-03-12 01:32:00,36.0,34.0,-100.00,WSW,245,11.0,19.0,93,0.00,,,-99.99,,2013-03-12 05:32:00,
2013-03-12 01:42:00,36.0,34.0,-100.00,WSW,245,12.0,21.0,93,0.00,,,-99.99,,2013-03-12 05:42:00,
2013-03-12 01:52:00,36.0,34.0,-100.00,WSW,250,11.0,19.0,93,0.00,,,-99.99,,2013-03-12 05:52:00,
2013-03-12 02:02:00,36.0,34.0,-100.00,WSW,250,9.0,16.0,93,0.00,,,-99.99,,2013-03-12 06:02:00,
2013-03-12 02:12:00,36.0,34.0,-100.00,WSW,255,9.0,15.0,93,0.00,,,-99.99,,2013-03-12 06:12:00,
2013-03-12 02:22:00,36.0,34.0,-100.00,WSW,250,12.0,17.0,93,0.00,,,-99.99,,2013-03-12 06:22:00,
2013-03-12 02:32:00,36.0,34.0,-100.00,WSW,250,12.0,17.0,93,0.00,,,-99.99,,2013-03-12 06:32:00,
2013-03-12 02:42:00,36.0,33.0,-100.00,WSW,240,15.0,22.0,91,0.00,,,-99.99,,2013-03-12 06:42:00,
2013-03-12 02:52:00,35.0,33.0,-100.00,WSW,255,14.0,19.0,92,0.00,,,-99.99,,2013-03-12 06:52:00,
2013-03-12 03:02:00,35.0,34.0,-100.00,WSW,245,11.0,21.0,92,0.00,,,-99.99,,2013-03-12 07:02:00,
2013-03-12 03:12:00,35.0,33.0,-100.00,WSW,240,14.0,20.0,92,0.00,,,-99.99,,2013-03-12 07:12:00,
2013-03-12 03:22:00,35.0,33.0,-100.00,WSW,240,12.0,20.0,92,0.00,,,-99.99,,2013-03-12 07:22:00,
2013-03-12 03:32:00,35.0,33.0,-100.00,SW,235,12.0,20.0,91,0.00,,,-99.99,,2013-03-12 07:32:00,
2013-03-12 03:42:00,35.0,32.0,-100.00,WSW,245,14.0,21.0,90,0.00,,,-99.99,,2013-03-12 07:42:00,
2013-03-12 03:52:00,35.0,32.0,-100.00,WSW,245,14.0,21.0,90,0.00,,,-99.99,,2013-03-12 07:52:00,
2013-03-12 04:02:00,35.0,32.0,-100.00,WSW,245,17.0,22.0,88,0.00,,,-99.99,,2013-03-12 08:02:00,
2013-03-12 04:13:00,35.0,32.0,-100.00,WSW,240,15.0,23.0,89,0.00,,,-99.99,,2013-03-12 08:13:00,
2013-03-12 04:22:00,35.0,32.0,-100.00,SW,235,14.0,21.0,88,0.00,,,-99.99,,2013-03-12 08:22:00,
2013-03-12 04:33:00,35.0,32.0,-100.00,WSW,245,14.0,22.0,89,0.00,,,-99.99,,2013-03-12 08:33:00,
2013-03-12 04:42:00,35.0,32.0,-100.00,WSW,245,14.0,22.0,89,0.00,,,-99.99,,2013-03-12 08:42:00,
2013-03-12 04:52:00,34.0,32.0,-100.00,WSW,245,11.0,20.0,91,0.00,,,-99.99,,2013-03-12 08:52:00,
2013-03-12 05:03:00,34.0,33.0,-100.00,WSW,245,12.0,17.0,94,0.00,,,-99.99,,2013-03-12 09:03:00,
2013-03-12 05:12:00,34.0,33.0,-100.00,WSW,245,13.0,17.0,95,0.00,,,-99.99,,2013-03-12 09:12:00,
2013-03-12 05:22:00,34.0,33.0,-100.00,WSW,245,10.0,16.0,96,0.00,,,-99.99,,2013-03-12 09:22:00,
2013-03-12 05:33:00,34.0,33.0,-100.00,WSW,245,10.0,16.0,96,0.00,,,-99.99,,2013-03-12 09:33:00,
2013-03-12 05:42:00,34.0,33.0,-100.00,SW,235,11.0,16.0,96,0.00,,,-99.99,,2013-03-12 09:42:00,
2013-03-12 05:52:00,34.0,33.0,-100.00,SW,235,11.0,20.0,96,0.00,,,-99.99,,2013-03-12 09:52:00,
2013-03-12 06:02:00,34.0,33.0,-100.00,SW,230,10.0,19.0,95,0.00,,,-99.99,,2013-03-12 10:02:00,
2013-03-12 06:12:00,34.0,33.0,-100.00,WSW,240,14.0,21.0,95,0.00,,,-99.99,,2013-03-12 10:12:00,
2013-03-12 06:22:00,34.0,33.0,-100.00,WSW,245,14.0,19.0,95,0.00,,,-99.99,,2013-03-12 10:22:00,
2013-03-12 06:32:00,34.0,33.0,-100.00,WSW,240,11.0,21.0,95,0.00,,,-99.99,,2013-03-12 10:32:00,
2013-03-12 06:42:00,34.0,33.0,-100.00,WSW,245,12.0,20.0,95,0.00,,,-99.99,,2013-03-12 10:42:00,
2013-03-12 06:52:00,34.0,33.0,-100.00,WSW,245,12.0,20.0,94,0.00,,,-99.99,,2013-03-12 10:52:00,
2013-03-12 07:02:00,34.0,33.0,-100.00,WSW,240,12.0,17.0,94,0.00,,,-99.99,,2013-03-12 11:02:00,
2013-03-12 07:12:00,34.0,32.0,-100.00,WSW,245,13.0,17.0,94,0.00,,,-99.99,,2013-03-12 11:12:00,
2013-03-12 07:22:00,34.0,33.0,-100.00,WSW,240,9.0,17.0,95,0.00,,,-99.99,,2013-03-12 11:22:00,
2013-03-12 07:32:00,34.0,33.0,-100.00,SW,230,9.0,16.0,96,0.00,,,-99.99,,2013-03-12 11:32:00,
2013-03-12 07:42:00,33.0,33.0,-100.00,WSW,245,12.0,21.0,96,0.00,,,-99.99,,2013-03-12 11:42:00,
2013-03-12 07:52:00,33.0,32.0,-100.00,WSW,245,13.0,21.0,96,0.00,,,-99.99,,2013-03-12 11:52:00,
2013-03-12 08:03:00,33.0,32.0,-100.00,WSW,245,12.0,17.0,96,0.00,,,-99.99,,2013-03-12 12:03:00,
2013-03-12 08:12:00,33.0,32.0,-100.00,WSW,245,12.0,17.0,96,0.00,,,-99.99,,2013-03-12 12:12:00,
2013-03-12 08:22:00,33.0,32.0,-100.00,WSW,250,12.0,18.0,96,0.00,,,-99.99,,2013-03-12 12:22:00,
2013-03-12 08:32:00,33.0,32.0,-100.00,WSW,250,12.0,18.0,96,0.00,,,-99.99,,2013-03-12 12:32:00,
2013-03-12 08:42:00,34.0,32.0,-100.00,WSW,240,9.0,19.0,93,0.00,,,-99.99,,2013-03-12 12:42:00,
2013-03-12 08:52:00,34.0,32.0,-100.00,SW,230,9.0,17.0,93,0.00,,,-99.99,,2013-03-12 12:52:00,
2013-03-12 09:02:00,33.0,32.0,-100.00,SW,235,9.0,19.0,93,0.00,,,-99.99,,2013-03-12 13:02:00,
2013-03-12 09:12:00,33.0,32.0,-100.00,WSW,245,12.0,17.0,93,0.00,,,-99.99,,2013-03-12 13:12:00,
2013-03-12 09:22:00,33.0,31.0,-100.00,WSW,240,12.0,19.0,93,0.00,,,-99.99,,2013-03-12 13:22:00,
2013-03-12 09:32:00,33.0,32.0,-100.00,WSW,240,12.0,17.0,93,0.00,,,-99.99,,2013-03-12 13:32:00,
2013-03-12 09:42:00,33.0,32.0,-100.00,WSW,240,9.0,14.0,94,0.00,,,-99.99,,2013-03-12 13:42:00,
2013-03-12 09:52:00,33.0,32.0,-100.00,SW,235,11.0,14.0,95,0.00,,,-99.99,,2013-03-12 13:52:00,
2013-03-12 10:02:00,33.0,32.0,-100.00,WSW,240,10.0,16.0,96,0.00,,,-99.99,,2013-03-12 14:02:00,
2013-03-12 10:12:00,33.0,32.0,-100.00,WSW,240,12.0,18.0,96,0.00,,,-99.99,,2013-03-12 14:12:00,
2013-03-12 10:22:00,33.0,32.0,-100.00,SW,225,12.0,16.0,95,0.00,,,-99.99,,2013-03-12 14:22:00,
2013-03-12 10:33:00,33.0,32.0,-100.00,SW,220,12.0,17.0,96,0.00,,,-99.99,,2013-03-12 14:33:00,
2013-03-12 10:42:00,33.0,32.0,-100.00,SW,235,9.0,18.0,96,0.00,,,-99.99,,2013-03-12 14:42:00,
2013-03-12 10:53:00,33.0,32.0,-100.00,WSW,240,10.0,13.0,96,0.00,,,-99.99,,2013-03-12 14:53:00,
2013-03-12 11:02:00,33.0,32.0,-100.00,SW,225,10.0,14.0,97,0.00,,,-99.99,,2013-03-12 15:02:00,
2013-03-12 11:12:00,33.0,32.0,-100.00,SW,230,12.0,19.0,97,0.00,,,-99.99,,2013-03-12 15:12:00,
2013-03-12 11:22:00,32.0,31.0,-100.00,SW,230,14.0,19.0,96,0.00,,,-99.99,,2013-03-12 15:22:00,
2013-03-12 11:32:00,32.0,31.0,-100.00,SW,230,14.0,19.0,96,0.00,,,-99.99,,2013-03-12 15:32:00,
2013-03-12 11:42:00,33.0,31.0,-100.00,SW,225,12.0,17.0,91,0.00,,,-99.99,,2013-03-12 15:42:00,
2013-03-12 11:52:00,33.0,31.0,-100.00,SW,225,11.0,14.0,91,0.00,,,-99.99,,2013-03-12 15:52:00,
2013-03-12 12:03:00,33.0,30.0,-100.00,SW,230,14.0,18.0,89,0.00,,,-99.99,,2013-03-12 16:03:00,
2013-03-12 12:12:00,33.0,29.0,-100.00,SW,235,12.0,18.0,87,0.00,,,-99.99,,2013-03-12 16:12:00,
2013-03-12 12:22:00,33.0,29.0,-100.00,WSW,245,12.0,16.0,85,0.00,,,-99.99,,2013-03-12 16:22:00,
2013-03-12 12:33:00,33.0,29.0,-100.00,SW,235,13.0,19.0,84,0.00,,,-99.99,,2013-03-12 16:33:00,
2013-03-12 12:43:00,34.0,29.0,-100.00,SW,235,14.0,22.0,81,0.00,,,-99.99,,2013-03-12 16:43:00,
2013-03-12 12:52:00,34.0,28.0,-100.00,WSW,245,13.0,21.0,80,0.00,,,-99.99,,2013-03-12 16:52:00,
2013-03-12 13:03:00,34.0,28.0,-100.00,SW,220,14.0,18.0,80,0.00,,,-99.99,,2013-03-12 17:03:00,
2013-03-12 13:13:00,34.0,29.0,-100.00,SW,225,12.0,21.0,79,0.00,,,-99.99,,2013-03-12 17:13:00,
2013-03-12 13:22:00,34.0,28.0,-100.00,SW,230,15.0,20.0,78,0.00,,,-99.99,,2013-03-12 17:22:00,
2013-03-12 13:34:00,34.0,28.0,-100.00,SW,225,12.0,22.0,78,0.00,,,-99.99,,2013-03-12 17:34:00,
2013-03-12 13:43:00,33.0,28.0,-100.00,SW,230,14.0,21.0,79,0.00,,,-99.99,,2013-03-12 17:43:00,
2013-03-12 13:53:00,34.0,28.0,-100.00,SW,215,11.0,19.0,80,0.00,,,-99.99,,2013-03-12 17:53:00,
2013-03-12 14:03:00,33.0,28.0,-100.00,SSW,210,15.0,20.0,79,0.00,,,-99.99,,2013-03-12 18:03:00,
2013-03-12 14:13:00,33.0,28.0,-100.00,SW,220,13.0,17.0,79,0.00,,,-99.99,,2013-03-12 18:13:00,
2013-03-12 14:23:00,33.0,28.0,-100.00,SSW,210,12.0,18.0,79,0.00,,,-99.99,,2013-03-12 18:23:00,
2013-03-12 14:33:00,33.0,27.0,-100.00,SW,230,12.0,17.0,79,0.00,,,-99.99,,2013-03-12 18:33:00,
2013-03-12 14:42:00,33.0,27.0,-100.00,WSW,240,12.0,19.0,78,0.00,,,-99.99,,2013-03-12 18:42:00,
2013-03-12 14:53:00,33.0,27.0,-100.00,SW,235,13.0,21.0,77,0.00,,,-99.99,,2013-03-12 18:53:00,
2013-03-12 15:04:00,33.0,27.0,-100.00,SW,235,13.0,21.0,77,0.00,,,-99.99,,2013-03-12 19:04:00,
2013-03-12 15:13:00,34.0,27.0,-100.00,SW,235,11.0,18.0,76,0.00,,,-99.99,,2013-03-12 19:13:00,
2013-03-12 15:23:00,33.0,27.0,-100.00,WSW,245,12.0,22.0,76,0.00,,,-99.99,,2013-03-12 19:23:00,
2013-03-12 15:33:00,33.0,27.0,-100.00,WSW,250,12.0,24.0,76,0.00,,,-99.99,,2013-03-12 19:33:00,
2013-03-12 15:43:00,33.0,27.0,-100.00,WSW,240,11.0,19.0,77,0.00,,,-99.99,,2013-03-12 19:43:00,
2013-03-12 15:53:00,34.0,28.0,-100.00,WSW,245,11.0,20.0,78,0.00,,,-99.99,,2013-03-12 19:53:00,
2013-03-12 16:02:00,34.0,28.0,-100.00,SW,230,11.0,19.0,78,0.00,,,-99.99,,2013-03-12 20:02:00,
2013-03-12 16:12:00,34.0,28.0,-100.00,WSW,240,11.0,17.0,79,0.00,,,-99.99,,2013-03-12 20:12:00,
2013-03-12 16:23:00,34.0,28.0,-100.00,SW,235,10.0,17.0,78,0.00,,,-99.99,,2013-03-12 20:23:00,
2013-03-12 16:33:00,34.0,28.0,-100.00,SW,220,7.0,16.0,78,0.00,,,-99.99,,2013-03-12 20:33:00,
2013-03-12 16:42:00,34.0,28.0,-100.00,WSW,255,7.0,17.0,77,0.00,,,-99.99,,2013-03-12 20:42:00,
2013-03-12 16:52:00,34.0,27.0,-100.00,SW,220,12.0,17.0,76,0.00,,,-99.99,,2013-03-12 20:52:00,
2013-03-12 17:03:00,34.0,28.0,-100.00,WSW,250,13.0,18.0,78,0.00,,,-99.99,,2013-03-12 21:03:00,
2013-03-12 17:13:00,34.0,28.0,-100.00,WSW,240,11.0,17.0,77,0.00,,,-99.99,,2013-03-12 21:13:00,
2013-03-12 17:22:00,34.0,28.0,-100.00,SW,230,12.0,16.0,77,0.00,,,-99.99,,2013-03-12 21:22:00,
2013-03-12 17:33:00,34.0,28.0,-100.00,SW,220,11.0,16.0,77,0.00,,,-99.99,,2013-03-12 21:33:00,
2013-03-12 17:43:00,34.0,28.0,-100.00,SW,230,11.0,18.0,77,0.00,,,-99.99,,2013-03-12 21:43:00,
2013-03-12 17:52:00,34.0,28.0,-100.00,SW,230,9.0,15.0,77,0.00,,,-99.99,,2013-03-12 21:52:00,
2013-03-12 18:03:00,35.0,28.0,-100.00,SW,235,7.0,13.0,77,0.00,,,-99.99,,2013-03-12 22:03:00,
2013-03-12 18:12:00,35.0,28.0,-100.00,SW,230,10.0,14.0,76,0.00,,,-99.99,,2013-03-12 22:12:00,
2013-03-12 18:22:00,35.0,28.0,-100.00,SW,230,9.0,17.0,75,0.00,,,-99.99,,2013-03-12 22:22:00,
2013-03-12 18:33:00,35.0,28.0,-100.00,SW,230,6.0,12.0,76,0.00,,,-99.99,,2013-03-12 22:33:00,
2013-03-12 18:43:00,35.0,28.0,-100.00,SW,235,9.0,14.0,75,0.00,,,-99.99,,2013-03-12 22:43:00,
2013-03-12 18:52:00,35.0,28.0,-100.00,SW,220,7.0,13.0,75,0.00,,,-99.99,,2013-03-12 22:52:00,
2013-03-12 19:03:00,35.0,28.0,-100.00,WSW,245,12.0,17.0,74,0.00,,,-99.99,,2013-03-12 23:03:00,
2013-03-12 19:12:00,35.0,28.0,-100.00,WSW,245,10.0,17.0,74,0.00,,,-99.99,,2013-03-12 23:12:00,
2013-03-12 19:22:00,35.0,27.0,-100.00,WSW,255,12.0,19.0,72,0.00,,,-99.99,,2013-03-12 23:22:00,
2013-03-12 19:34:00,35.0,27.0,-100.00,WSW,250,16.0,21.0,72,0.00,,,-99.99,,2013-03-12 23:34:00,
2013-03-12 19:43:00,34.0,28.0,-100.00,WSW,255,13.0,20.0,78,0.00,,,-99.99,,2013-03-12 23:43:00,
2013-03-12 19:52:00,34.0,28.0,-100.00,WSW,255,11.0,16.0,79,0.00,,,-99.99,,2013-03-12 23:52:00,
2013-03-12 20:03:00,34.0,28.0,-100.00,WSW,245,7.0,14.0,79,0.00,,,-99.99,,2013-03-13 00:03:00,
2013-03-12 20:12:00,33.0,28.0,-100.00,SW,230,9.0,16.0,79,0.00,,,-99.99,,2013-03-13 00:12:00,
2013-03-12 20:23:00,33.0,28.0,-100.00,WSW,240,7.0,12.0,79,0.00,,,-99.99,,2013-03-13 00:23:00,
2013-03-12 20:33:00,33.0,28.0,-100.00,WSW,245,6.0,9.0,79,0.00,,,-99.99,,2013-03-13 00:33:00,
2013-03-12 20:42:00,33.0,28.0,-100.00,SW,230,4.0,7.0,81,0.00,,,-99.99,,2013-03-13 00:42:00,
2013-03-12 21:12:00,33.0,27.0,-100.00,SW,215,5.0,7.0,79,0.00,,,-99.99,,2013-03-13 01:12:00,
2013-03-12 21:22:00,33.0,27.0,-100.00,SW,215,6.0,9.0,79,0.00,,,-99.99,,2013-03-13 01:22:00,
2013-03-12 21:33:00,33.0,27.0,-100.00,SSW,210,6.0,9.0,79,0.00,,,-99.99,,2013-03-13 01:33:00,
2013-03-12 21:43:00,33.0,27.0,-100.00,SSW,210,6.0,9.0,79,0.00,,,-99.99,,2013-03-13 01:43:00,
2013-03-12 21:52:00,33.0,27.0,-100.00,SSW,210,6.0,9.0,79,0.00,,,-99.99,,2013-03-13 01:52:00,
2013-03-12 22:03:00,32.0,27.0,-100.00,SSW,205,4.0,7.0,79,0.00,,,-99.99,,2013-03-13 02:03:00,
2013-03-12 22:12:00,33.0,27.0,-100.00,SSW,205,6.0,7.0,79,0.00,,,-99.99,,2013-03-13 02:12:00,
2013-03-12 22:23:00,33.0,27.0,-100.00,SSW,210,6.0,8.0,78,0.00,,,-99.99,,2013-03-13 02:23:00,
2013-03-12 22:32:00,33.0,27.0,-100.00,SSW,205,6.0,9.0,78,0.55,,,-99.99,,2013-03-13 02:32:00,
2013-03-12 22:43:00,33.0,29.0,-100.00,SW,230,8.0,13.0,86,2.83,,,-99.99,,2013-03-13 02:43:00,
2013-03-12 22:52:00,32.0,30.0,-100.00,SW,215,7.0,11.0,91,9.06,,,-99.99,,2013-03-13 02:52:00,
2013-03-12 23:02:00,32.0,31.0,-100.00,SSW,210,7.0,12.0,95,8.50,,,-99.99,,2013-03-13 03:02:00,
2013-03-12 23:12:00,32.0,31.0,-100.00,WSW,240,8.0,12.0,97,6.77,,,-99.99,,2013-03-13 03:12:00,
2013-03-12 23:22:00,31.0,31.0,-100.00,SW,215,8.0,10.0,98,1.10,,,-99.99,,2013-03-13 03:22:00,
2013-03-12 23:32:00,31.0,31.0,-100.00,SW,215,6.0,9.0,99,0.00,,,-99.99,,2013-03-13 03:32:00,
2013-03-12 23:42:00,31.0,31.0,-100.00,SW,220,7.0,9.0,99,0.00,,,-99.99,,2013-03-13 03:42:00,
2013-03-12 23:52:00,31.0,31.0,-100.00,SW,230,6.0,12.0,99,0.00,,,-99.99,,2013-03-13 03:52:00,